sat.trackr.live / text

‹ back to catalog

NILESAT 201

NORAD 36830 · 2010-037A

PAYLOAD ACTIVE UNKNOWN

§ Identity

Operator
Country
EGYP
Launch date
2010-08-04
Launch site
FRGUI
Launch vehicle
Mass (kg)
RCS (m²)
59.76

Purposes: comms

External: N2YO · Heavens-Above · Gunter

§ Orbital elements

Epoch: 2026-09-20T03:12:05.803200Z

Period
1,436.09 min
Inclination
0.0159°
Eccentricity
0.0005658
Mean motion
1.00272396 rev/d
Perigee alt
35,762.6 km
Apogee alt
35,810.3 km
Semi-major
42,164.6 km
B*
0.0000e+0
RAAN
160.7207°
Arg perigee
19.3693°
Mean anomaly
219.9779°
Rev number
5,932

§ Raw data

NILESAT 2011 36830U 10037A   26263.13340050 -.00000062  00000+0  00000+0 0  99932 36830   0.0159 160.7207 0005658  19.3693 219.9779  1.00272396 59328

JSON: /api/v1/satellites/36830 · /tle

For live sub-satellite position, see the globe view (requires WebGL).

§ Visibility from observer

Set your observer location to see the next 7 days of passes ≥ 10°. The values pass through the URL so the page stays shareable.

No JS? Fill the form by hand. The geolocation button needs JavaScript.